Weather History for Kozani, Greece

Change the Weather History Date:

Saturday, May 18, 2013

  Actual Average Record
Temperature  
Mean Temperature 68 °F -  
Max Temperature 82 °F - - ()
Min Temperature 53 °F - - ()
Cooling Degree Days 2    
Growing Degree Days 18 (Base 50)    
Moisture  
Dew Point 45 °F    
Average Humidity 48    
Maximum Humidity 77    
Minimum Humidity 23    
Precipitation  
Precipitation 0.00 in - - ()
Sea Level Pressure  
Sea Level Pressure 30.03 in    
Wind  
Wind Speed 5 mph ()    
Max Wind Speed 9 mph    
Max Gust Speed 21 mph    
T = Trace of Precipitation, MM = Missing Value Source: Averaged Metar Reports

Daily Weather History Graph

Daily Weather History Graph

Search for Another Location

Airport:

Trip Planner

Search our weather history database for the weather conditions in past years. The results will help you decide how hot, cold, wet, or windy it might be!

Date:

Astronomy

May. 18, 2013 Rise Set
Actual Time 6:14 AM EEST 8:44 PM EEST
Civil Twilight 5:42 AM EEST 9:15 PM EEST
Nautical Twilight 5:04 AM EEST 9:54 PM EEST
Astronomical Twilight 4:21 AM EEST 10:38 PM EEST
Moon 1:28 PM EEST (5/18) 1:57 AM EEST (5/18)
Length of Visible Light 15h 32m
Length of Day
14h 30m
First Quarter, 52% of the Moon is Illuminated
May 18
First Quarter
May 25
Full
May 31
Last Quarter
Jun 8
New
Jun 16
First Quarter

Hourly Weather History & Observations

Time (EEST) Temp. Dew Point Humidity Pressure Visibility Wind Dir Wind Speed Gust Speed Precip Events Conditions
12:20 AM 62.6 °F 51.8 °F 68% 29.98 in - Variable 3.5 mph - N/A   Unknown
12:50 AM 62.6 °F 48.2 °F 59% 29.98 in - West 5.8 mph - N/A   Unknown
1:20 AM 60.8 °F 48.2 °F 63% 29.98 in - West 5.8 mph - N/A   Unknown
1:50 AM 60.8 °F 48.2 °F 63% 29.98 in - Variable 3.5 mph - N/A   Unknown
2:20 AM 57.2 °F 48.2 °F 72% 29.98 in - Variable 3.5 mph - N/A   Unknown
2:50 AM 59.0 °F 48.2 °F 67% 29.98 in - Variable 2.3 mph - N/A   Unknown
3:20 AM 57.2 °F 48.2 °F 72% 29.98 in - NW 5.8 mph - N/A   Unknown
3:50 AM 55.4 °F 46.4 °F 72% 29.98 in - Variable 2.3 mph - N/A   Unknown
4:20 AM 55.4 °F 46.4 °F 72% 29.98 in - NNW 4.6 mph - N/A   Unknown
4:50 AM 53.6 °F 46.4 °F 77% 29.98 in - North 4.6 mph - N/A   Unknown
5:20 AM 55.4 °F 46.4 °F 72% 29.98 in - North 5.8 mph - N/A   Unknown
5:50 AM 53.6 °F 46.4 °F 77% 29.98 in - North 6.9 mph - N/A   Unknown
6:20 AM 53.6 °F 46.4 °F 77% 30.01 in - North 5.8 mph - N/A   Unknown
6:50 AM 53.6 °F 46.4 °F 77% 30.01 in - NNW 4.6 mph - N/A   Unknown
7:20 AM 57.2 °F 48.2 °F 72% 30.01 in - NNW 5.8 mph - N/A   Unknown
7:50 AM 62.6 °F 51.8 °F 68% 30.04 in - Variable 2.3 mph - N/A   Unknown
8:20 AM 66.2 °F 50.0 °F 56% 30.04 in - Variable 1.2 mph - N/A   Unknown
8:50 AM 69.8 °F 51.8 °F 53% 30.04 in - Calm Calm - N/A   Clear
9:50 AM 71.6 °F 51.8 °F 50% 30.06 in - Calm Calm - N/A   Clear
10:50 AM 73.4 °F 51.8 °F 47% 30.09 in - ESE 4.6 mph - N/A   Clear
11:50 AM 78.8 °F 44.6 °F 30% 30.09 in - SSE 6.9 mph - N/A   Clear
12:50 PM 80.6 °F 42.8 °F 26% 30.06 in - Calm Calm - N/A   Clear
1:50 PM 80.6 °F 41.0 °F 24% 30.06 in - West 9.2 mph - N/A   Clear
2:50 PM 82.4 °F 41.0 °F 23% 30.06 in - WSW 9.2 mph - N/A   Clear
3:20 PM 82.4 °F 41.0 °F 23% 30.04 in - West 9.2 mph 20.7 mph N/A   Unknown
3:50 PM 82.4 °F 41.0 °F 23% 30.04 in - NW 9.2 mph - N/A   Unknown
4:20 PM 80.6 °F 39.2 °F 23% 30.04 in - NW 9.2 mph - N/A   Unknown
4:50 PM 80.6 °F 41.0 °F 24% 30.04 in - NW 8.1 mph - N/A   Unknown
5:20 PM 80.6 °F 41.0 °F 24% 30.04 in - West 9.2 mph - N/A   Unknown
5:50 PM 80.6 °F 41.0 °F 24% 30.04 in - WNW 9.2 mph - N/A   Unknown
6:20 PM 80.6 °F 39.2 °F 23% 30.04 in - WNW 8.1 mph - N/A   Unknown
6:50 PM 80.6 °F 42.8 °F 26% 30.04 in - WSW 6.9 mph - N/A   Unknown
7:20 PM 78.8 °F 41.0 °F 26% 30.04 in - NNW 5.8 mph - N/A   Unknown
7:50 PM 77.0 °F 41.0 °F 28% 30.04 in - WNW 4.6 mph - N/A   Unknown
8:20 PM 73.4 °F 44.6 °F 36% 30.04 in - Variable 3.5 mph - N/A   Unknown
8:50 PM 69.8 °F 44.6 °F 40% 30.06 in - NNW 4.6 mph - N/A   Unknown
9:20 PM 68.0 °F 44.6 °F 43% 30.06 in - WNW 4.6 mph - N/A   Unknown
9:50 PM 64.4 °F 48.2 °F 56% 30.06 in - North 6.9 mph - N/A   Unknown
10:20 PM 68.0 °F 44.6 °F 43% 30.06 in - NNW 6.9 mph - N/A   Unknown
10:50 PM 68.0 °F 42.8 °F 40% 30.06 in - NW 6.9 mph - N/A   Unknown
11:20 PM 66.2 °F 44.6 °F 46% 30.06 in - NNW 6.9 mph - N/A   Unknown
11:50 PM 64.4 °F 44.6 °F 49% 30.06 in - NW 6.9 mph - N/A   Unknown